Year,Month,Day,Hour,Minute,Value (Times are PST for temperature in C)
2011,05,18,00,00,6.30
2011,05,18,00,01,6.30
2011,05,18,00,02,6.30
2011,05,18,00,03,6.30
2011,05,18,00,04,6.30
2011,05,18,00,05,6.30
2011,05,18,00,06,6.30
2011,05,18,00,07,6.20
2011,05,18,00,08,6.20
2011,05,18,00,09,6.20
2011,05,18,00,10,6.20
2011,05,18,00,11,6.20
2011,05,18,00,12,6.20
2011,05,18,00,13,6.20
2011,05,18,00,14,6.20
2011,05,18,00,15,6.20
2011,05,18,00,16,6.10
2011,05,18,00,17,6.10
2011,05,18,00,18,6.10
2011,05,18,00,19,6.10
2011,05,18,00,20,6.10
2011,05,18,00,21,6.00
2011,05,18,00,22,6.00
2011,05,18,00,23,6.00
2011,05,18,00,24,5.90
2011,05,18,00,25,5.90
2011,05,18,00,26,5.90
2011,05,18,00,27,5.90
2011,05,18,00,28,5.90
2011,05,18,00,29,5.90
2011,05,18,00,30,5.80
2011,05,18,00,31,5.80
2011,05,18,00,32,5.80
2011,05,18,00,33,5.80
2011,05,18,00,34,5.80
2011,05,18,00,35,5.80
2011,05,18,00,36,5.80
2011,05,18,00,37,5.80
2011,05,18,00,38,5.80
2011,05,18,00,39,5.80
2011,05,18,00,40,5.70
2011,05,18,00,41,5.70
2011,05,18,00,42,5.70
2011,05,18,00,43,5.70
2011,05,18,00,44,5.70
2011,05,18,00,45,5.60
2011,05,18,00,46,5.60
2011,05,18,00,47,5.60
2011,05,18,00,48,5.60
2011,05,18,00,49,5.50
2011,05,18,00,50,5.50
2011,05,18,00,51,5.50
2011,05,18,00,52,5.40
2011,05,18,00,53,5.40
2011,05,18,00,54,5.40
2011,05,18,00,55,5.40
2011,05,18,00,56,5.40
2011,05,18,00,57,5.30
2011,05,18,00,58,5.30
2011,05,18,00,59,5.20
2011,05,18,01,00,5.20
2011,05,18,01,01,5.20
2011,05,18,01,02,5.20
2011,05,18,01,03,5.20
2011,05,18,01,04,5.20
2011,05,18,01,05,5.20
2011,05,18,01,06,5.20
2011,05,18,01,07,5.20
2011,05,18,01,08,5.20
2011,05,18,01,09,5.20
2011,05,18,01,10,5.20
2011,05,18,01,11,5.20
2011,05,18,01,12,5.20
2011,05,18,01,13,5.20
2011,05,18,01,14,5.20
2011,05,18,01,15,5.20
2011,05,18,01,16,5.20
2011,05,18,01,17,5.20
2011,05,18,01,18,5.20
2011,05,18,01,19,5.20
2011,05,18,01,20,5.10
2011,05,18,01,21,5.20
2011,05,18,01,22,5.20
2011,05,18,01,23,5.20
2011,05,18,01,24,5.20
2011,05,18,01,25,5.10
2011,05,18,01,26,5.20
2011,05,18,01,27,5.20
2011,05,18,01,28,5.20
2011,05,18,01,29,5.20
2011,05,18,01,30,5.30
2011,05,18,01,31,5.30
2011,05,18,01,32,5.30
2011,05,18,01,33,5.30
2011,05,18,01,34,5.30
2011,05,18,01,35,5.20
2011,05,18,01,36,5.20
2011,05,18,01,37,5.20
2011,05,18,01,38,5.20
2011,05,18,01,39,5.20
2011,05,18,01,40,5.20
2011,05,18,01,41,5.20
2011,05,18,01,42,5.20
2011,05,18,01,43,5.20
2011,05,18,01,44,5.20
2011,05,18,01,45,5.10
2011,05,18,01,46,5.10
2011,05,18,01,47,5.10
2011,05,18,01,48,5.10
2011,05,18,01,49,5.10
2011,05,18,01,50,5.10
2011,05,18,01,51,5.10
2011,05,18,01,52,5.10
2011,05,18,01,53,5.00
2011,05,18,01,54,5.00
2011,05,18,01,55,5.00
2011,05,18,01,56,4.90
2011,05,18,01,57,4.90
2011,05,18,01,58,4.90
2011,05,18,01,59,4.90
2011,05,18,02,00,4.90
2011,05,18,02,01,4.80
2011,05,18,02,02,4.80
2011,05,18,02,03,4.80
2011,05,18,02,04,4.80
2011,05,18,02,05,4.80
2011,05,18,02,06,4.80
2011,05,18,02,07,4.80
2011,05,18,02,08,4.80
2011,05,18,02,09,4.80
2011,05,18,02,10,4.80
2011,05,18,02,11,4.80
2011,05,18,02,12,4.80
2011,05,18,02,13,4.80
2011,05,18,02,14,4.80
2011,05,18,02,15,4.80
2011,05,18,02,16,4.70
2011,05,18,02,17,4.70
2011,05,18,02,18,4.70
2011,05,18,02,19,4.70
2011,05,18,02,20,4.70
2011,05,18,02,21,4.70
2011,05,18,02,22,4.70
2011,05,18,02,23,4.70
2011,05,18,02,24,4.70
2011,05,18,02,25,4.70
2011,05,18,02,26,4.70
2011,05,18,02,27,4.60
2011,05,18,02,28,4.60
2011,05,18,02,29,4.60
2011,05,18,02,30,4.60
2011,05,18,02,31,4.60
2011,05,18,02,32,4.60
2011,05,18,02,33,4.50
2011,05,18,02,34,4.50
2011,05,18,02,35,4.50
2011,05,18,02,36,4.50
2011,05,18,02,37,4.50
2011,05,18,02,38,4.50
2011,05,18,02,39,4.40
2011,05,18,02,40,4.30
2011,05,18,02,41,4.20
2011,05,18,02,42,4.20
2011,05,18,02,43,4.10
2011,05,18,02,44,4.10
2011,05,18,02,45,4.10
2011,05,18,02,46,4.10
2011,05,18,02,47,4.10
2011,05,18,02,48,4.10
2011,05,18,02,49,4.10
2011,05,18,02,50,4.00
2011,05,18,02,51,4.00
2011,05,18,02,52,4.00
2011,05,18,02,53,4.00
2011,05,18,02,54,4.00
2011,05,18,02,55,4.00
2011,05,18,02,56,4.00
2011,05,18,02,57,4.10
2011,05,18,02,58,4.10
2011,05,18,02,59,4.10
2011,05,18,03,00,4.10
2011,05,18,03,01,4.10
2011,05,18,03,02,4.10
2011,05,18,03,03,4.10
2011,05,18,03,04,4.20
2011,05,18,03,05,4.20
2011,05,18,03,06,4.20
2011,05,18,03,07,4.20
2011,05,18,03,08,4.20
2011,05,18,03,09,4.20
2011,05,18,03,10,4.20
2011,05,18,03,11,4.20
2011,05,18,03,12,4.20
2011,05,18,03,13,4.20
2011,05,18,03,14,4.20
2011,05,18,03,15,4.20
2011,05,18,03,16,4.20
2011,05,18,03,17,4.20
2011,05,18,03,18,4.20
2011,05,18,03,19,4.20
2011,05,18,03,20,4.20
2011,05,18,03,21,4.20
2011,05,18,03,22,4.10
2011,05,18,03,23,4.10
2011,05,18,03,24,4.10
2011,05,18,03,25,4.10
2011,05,18,03,26,4.10
2011,05,18,03,27,4.10
2011,05,18,03,28,4.00
2011,05,18,03,29,4.00
2011,05,18,03,30,3.90
2011,05,18,03,31,3.90
2011,05,18,03,32,3.90
2011,05,18,03,33,3.90
2011,05,18,03,34,3.90
2011,05,18,03,35,3.90
2011,05,18,03,36,3.90
2011,05,18,03,37,3.90
2011,05,18,03,38,3.90
2011,05,18,03,39,3.80
2011,05,18,03,40,3.80
2011,05,18,03,41,3.80
2011,05,18,03,42,3.80
2011,05,18,03,43,3.70
2011,05,18,03,44,3.70
2011,05,18,03,45,3.70
2011,05,18,03,46,3.70
2011,05,18,03,47,3.60
2011,05,18,03,48,3.60
2011,05,18,03,49,3.60
2011,05,18,03,50,3.60
2011,05,18,03,51,3.50
2011,05,18,03,52,3.50
2011,05,18,03,53,3.50
2011,05,18,03,54,3.50
2011,05,18,03,55,3.50
2011,05,18,03,56,3.50
2011,05,18,03,57,3.50
2011,05,18,03,58,3.60
2011,05,18,03,59,3.60
2011,05,18,04,00,3.60
2011,05,18,04,01,3.60
2011,05,18,04,02,3.60
2011,05,18,04,03,3.60
2011,05,18,04,04,3.60
2011,05,18,04,05,3.60
2011,05,18,04,06,3.60
2011,05,18,04,07,3.60
2011,05,18,04,08,3.60
2011,05,18,04,09,3.60
2011,05,18,04,10,3.60
2011,05,18,04,11,3.60
2011,05,18,04,12,3.70
2011,05,18,04,13,3.70
2011,05,18,04,14,3.70
2011,05,18,04,15,3.70
2011,05,18,04,16,3.70
2011,05,18,04,17,3.70
2011,05,18,04,18,3.70
2011,05,18,04,19,3.80
2011,05,18,04,20,3.80
2011,05,18,04,21,3.80
2011,05,18,04,22,3.80
2011,05,18,04,23,3.80
2011,05,18,04,24,3.80
2011,05,18,04,25,3.80
2011,05,18,04,26,3.80
2011,05,18,04,27,3.80
2011,05,18,04,28,3.80
2011,05,18,04,29,3.70
2011,05,18,04,30,3.70
2011,05,18,04,31,3.70
2011,05,18,04,32,3.60
2011,05,18,04,33,3.60
2011,05,18,04,34,3.70
2011,05,18,04,35,3.70
2011,05,18,04,36,3.80
2011,05,18,04,37,3.80
2011,05,18,04,38,3.80
2011,05,18,04,39,3.80
2011,05,18,04,40,3.70
2011,05,18,04,41,3.70
2011,05,18,04,42,3.70
2011,05,18,04,43,3.70
2011,05,18,04,44,3.70
2011,05,18,04,45,3.60
2011,05,18,04,46,3.60
2011,05,18,04,47,3.60
2011,05,18,04,48,3.60
2011,05,18,04,49,3.50
2011,05,18,04,50,3.50
2011,05,18,04,51,3.50
2011,05,18,04,52,3.40
2011,05,18,04,53,3.40
2011,05,18,04,54,3.40
2011,05,18,04,55,3.40
2011,05,18,04,56,3.30
2011,05,18,04,57,3.30
2011,05,18,04,58,3.30
2011,05,18,04,59,3.30
2011,05,18,05,00,3.30
2011,05,18,05,01,3.30
2011,05,18,05,02,3.30
2011,05,18,05,03,3.30
2011,05,18,05,04,3.30
2011,05,18,05,05,3.30
2011,05,18,05,06,3.30
2011,05,18,05,07,3.30
2011,05,18,05,08,3.30
2011,05,18,05,09,3.30
2011,05,18,05,10,3.30
2011,05,18,05,11,3.40
2011,05,18,05,12,3.40
2011,05,18,05,13,3.40
2011,05,18,05,14,3.40
2011,05,18,05,15,3.40
2011,05,18,05,16,3.40
2011,05,18,05,17,3.40
2011,05,18,05,18,3.40
2011,05,18,05,19,3.40
2011,05,18,05,20,3.40
2011,05,18,05,21,3.30
2011,05,18,05,22,3.30
2011,05,18,05,23,3.30
2011,05,18,05,24,3.30
2011,05,18,05,25,3.30
2011,05,18,05,26,3.30
2011,05,18,05,27,3.30
2011,05,18,05,28,3.30
2011,05,18,05,29,3.30
2011,05,18,05,30,3.30
2011,05,18,05,31,3.30
2011,05,18,05,32,3.30
2011,05,18,05,33,3.30
2011,05,18,05,34,3.30
2011,05,18,05,35,3.30
2011,05,18,05,36,3.30
2011,05,18,05,37,3.30
2011,05,18,05,38,3.40
2011,05,18,05,39,3.40
2011,05,18,05,40,3.40
2011,05,18,05,41,3.40
2011,05,18,05,42,3.40
2011,05,18,05,43,3.30
2011,05,18,05,44,3.30
2011,05,18,05,45,3.30
2011,05,18,05,46,3.30
2011,05,18,05,47,3.30
2011,05,18,05,48,3.20
2011,05,18,05,49,3.20
2011,05,18,05,50,3.20
2011,05,18,05,51,3.20
2011,05,18,05,52,3.20
2011,05,18,05,53,3.20
2011,05,18,05,54,3.20
2011,05,18,05,55,3.20
2011,05,18,05,56,3.20
2011,05,18,05,57,3.20
2011,05,18,05,58,3.20
2011,05,18,05,59,3.20
2011,05,18,06,00,3.20
2011,05,18,06,01,3.20
2011,05,18,06,02,3.20
2011,05,18,06,03,3.20
2011,05,18,06,04,3.20
2011,05,18,06,05,3.30
2011,05,18,06,06,3.40
2011,05,18,06,07,3.40
2011,05,18,06,08,3.50
2011,05,18,06,09,3.50
2011,05,18,06,10,3.50
2011,05,18,06,11,3.60
2011,05,18,06,12,3.60
2011,05,18,06,13,3.60
2011,05,18,06,14,3.60
2011,05,18,06,15,3.60
2011,05,18,06,16,3.60
2011,05,18,06,17,3.60
2011,05,18,06,18,3.50
2011,05,18,06,19,3.50
2011,05,18,06,20,3.50
2011,05,18,06,21,3.50
2011,05,18,06,22,3.50
2011,05,18,06,23,3.50
2011,05,18,06,24,3.50
2011,05,18,06,25,3.50
2011,05,18,06,26,3.50
2011,05,18,06,27,3.60
2011,05,18,06,28,3.60
2011,05,18,06,29,3.60
2011,05,18,06,30,3.60
2011,05,18,06,31,3.70
2011,05,18,06,32,3.70
2011,05,18,06,33,3.80
2011,05,18,06,34,3.90
2011,05,18,06,35,4.00
2011,05,18,06,36,4.10
2011,05,18,06,37,4.20
2011,05,18,06,38,4.30
2011,05,18,06,39,4.40
2011,05,18,06,40,4.50
2011,05,18,06,41,4.70
2011,05,18,06,42,4.80
2011,05,18,06,43,4.80
2011,05,18,06,44,4.90
2011,05,18,06,45,5.00
2011,05,18,06,46,5.10
2011,05,18,06,47,5.10
2011,05,18,06,48,5.20
2011,05,18,06,49,5.40
2011,05,18,06,50,5.50
2011,05,18,06,51,5.50
2011,05,18,06,52,5.60
2011,05,18,06,53,5.60
2011,05,18,06,54,5.70
2011,05,18,06,55,5.70
2011,05,18,06,56,5.70
2011,05,18,06,57,5.80
2011,05,18,06,58,5.80
2011,05,18,06,59,5.90
2011,05,18,07,00,5.90
2011,05,18,07,01,5.90
2011,05,18,07,02,5.90
2011,05,18,07,03,6.00
2011,05,18,07,04,6.00
2011,05,18,07,05,6.00
2011,05,18,07,06,6.10
2011,05,18,07,07,6.10
2011,05,18,07,08,6.10
2011,05,18,07,09,6.10
2011,05,18,07,10,6.20
2011,05,18,07,11,6.20
2011,05,18,07,12,6.20
2011,05,18,07,13,6.20
2011,05,18,07,14,6.30
2011,05,18,07,15,6.30
2011,05,18,07,16,6.30
2011,05,18,07,17,6.30
2011,05,18,07,18,6.40
2011,05,18,07,19,6.50
2011,05,18,07,20,6.50
2011,05,18,07,21,6.60
2011,05,18,07,22,6.60
2011,05,18,07,23,6.70
2011,05,18,07,24,6.70
2011,05,18,07,25,6.80
2011,05,18,07,26,6.80
2011,05,18,07,27,6.90
2011,05,18,07,28,6.90
2011,05,18,07,29,7.00
2011,05,18,07,30,7.00
2011,05,18,07,31,7.10
2011,05,18,07,32,7.20
2011,05,18,07,33,7.20
2011,05,18,07,34,7.20
2011,05,18,07,35,7.20
2011,05,18,07,36,7.40
2011,05,18,07,37,7.40
2011,05,18,07,38,7.50
2011,05,18,07,39,7.60
2011,05,18,07,40,7.60
2011,05,18,07,41,7.80
2011,05,18,07,42,7.90
2011,05,18,07,43,8.10
2011,05,18,07,44,8.30
2011,05,18,07,45,8.40
2011,05,18,07,46,8.50
2011,05,18,07,47,8.60
2011,05,18,07,48,8.60
2011,05,18,07,49,8.70
2011,05,18,07,50,8.80
2011,05,18,07,51,8.80
2011,05,18,07,52,8.90
2011,05,18,07,53,9.00
2011,05,18,07,54,9.10
2011,05,18,07,55,9.20
2011,05,18,07,56,9.30
2011,05,18,07,57,9.40
2011,05,18,07,58,9.50
2011,05,18,07,59,9.60
2011,05,18,08,00,9.70
2011,05,18,08,01,9.80
2011,05,18,08,02,9.80
2011,05,18,08,03,9.90
2011,05,18,08,04,10.00
2011,05,18,08,05,10.10
2011,05,18,08,06,10.10
2011,05,18,08,07,10.20
2011,05,18,08,08,10.20
2011,05,18,08,09,10.30
2011,05,18,08,10,10.30
2011,05,18,08,11,10.30
2011,05,18,08,12,10.30
2011,05,18,08,13,10.40
2011,05,18,08,14,10.40
2011,05,18,08,15,10.50
2011,05,18,08,16,10.50
2011,05,18,08,17,10.60
2011,05,18,08,18,10.60
2011,05,18,08,19,10.70
2011,05,18,08,20,10.80
2011,05,18,08,21,10.80
2011,05,18,08,22,10.90
2011,05,18,08,23,10.90
2011,05,18,08,24,11.00
2011,05,18,08,25,11.10
2011,05,18,08,26,11.20
2011,05,18,08,27,11.20
2011,05,18,08,28,11.30
2011,05,18,08,29,11.30
2011,05,18,08,30,11.30
2011,05,18,08,31,11.30
2011,05,18,08,32,11.30
2011,05,18,08,33,11.30
2011,05,18,08,34,11.30
2011,05,18,08,35,11.40
2011,05,18,08,36,11.40
2011,05,18,08,37,11.40
2011,05,18,08,38,11.50
2011,05,18,08,39,11.60
2011,05,18,08,40,11.70
2011,05,18,08,41,11.80
2011,05,18,08,42,11.80
2011,05,18,08,43,11.80
2011,05,18,08,44,11.80
2011,05,18,08,45,11.80
2011,05,18,08,46,11.80
2011,05,18,08,47,11.80
2011,05,18,08,48,11.80
2011,05,18,08,49,11.70
2011,05,18,08,50,11.70
2011,05,18,08,51,11.70
2011,05,18,08,52,11.70
2011,05,18,08,53,11.80
2011,05,18,08,54,11.80
2011,05,18,08,55,11.90
2011,05,18,08,56,12.00
2011,05,18,08,57,12.00
2011,05,18,08,58,12.00
2011,05,18,08,59,11.90
2011,05,18,09,00,11.90
2011,05,18,09,01,11.80
2011,05,18,09,02,11.80
2011,05,18,09,03,11.80
2011,05,18,09,04,11.90
2011,05,18,09,05,11.90
2011,05,18,09,06,11.90
2011,05,18,09,07,11.90
2011,05,18,09,08,11.90
2011,05,18,09,09,11.90
2011,05,18,09,10,11.90
2011,05,18,09,11,11.90
2011,05,18,09,12,12.00
2011,05,18,09,13,12.00
2011,05,18,09,14,12.10
2011,05,18,09,15,12.10
2011,05,18,09,16,12.20
2011,05,18,09,17,12.20
2011,05,18,09,18,12.20
2011,05,18,09,19,12.20
2011,05,18,09,20,12.30
2011,05,18,09,21,12.40
2011,05,18,09,22,12.40
2011,05,18,09,23,12.40
2011,05,18,09,24,12.40
2011,05,18,09,25,12.40
2011,05,18,09,26,12.40
2011,05,18,09,27,12.40
2011,05,18,09,28,12.40
2011,05,18,09,29,12.30
2011,05,18,09,30,12.30
2011,05,18,09,31,12.30
2011,05,18,09,32,12.30
2011,05,18,09,33,12.40
2011,05,18,09,34,12.50
2011,05,18,09,35,12.50
2011,05,18,09,36,12.60
2011,05,18,09,37,12.60
2011,05,18,09,38,12.60
2011,05,18,09,39,12.60
2011,05,18,09,40,12.60
2011,05,18,09,41,12.60
2011,05,18,09,42,12.50
2011,05,18,09,43,12.50
2011,05,18,09,44,12.40
2011,05,18,09,45,12.40
2011,05,18,09,46,12.40
2011,05,18,09,47,12.40
2011,05,18,09,48,12.40
2011,05,18,09,49,12.40
2011,05,18,09,50,12.40
2011,05,18,09,51,12.40
2011,05,18,09,52,12.40
2011,05,18,09,53,12.50
2011,05,18,09,54,12.60
2011,05,18,09,55,12.60
2011,05,18,09,56,12.60
2011,05,18,09,57,12.70
2011,05,18,09,58,12.80
2011,05,18,09,59,12.90
2011,05,18,10,00,12.90
2011,05,18,10,01,13.00
2011,05,18,10,02,12.90
2011,05,18,10,03,12.80
2011,05,18,10,04,12.70
2011,05,18,10,05,12.50
2011,05,18,10,06,12.40
2011,05,18,10,07,12.30
2011,05,18,10,08,12.30
2011,05,18,10,09,12.30
2011,05,18,10,10,12.30
2011,05,18,10,11,12.30
2011,05,18,10,12,12.30
2011,05,18,10,13,12.30
2011,05,18,10,14,12.30
2011,05,18,10,15,12.30
2011,05,18,10,16,12.40
2011,05,18,10,17,12.40
2011,05,18,10,18,12.50
2011,05,18,10,19,12.60
2011,05,18,10,20,12.70
2011,05,18,10,21,12.70
2011,05,18,10,22,12.80
2011,05,18,10,23,12.80
2011,05,18,10,24,12.90
2011,05,18,10,25,12.90
2011,05,18,10,26,12.90
2011,05,18,10,27,12.90
2011,05,18,10,28,12.90
2011,05,18,10,29,13.00
2011,05,18,10,30,13.00
2011,05,18,10,31,12.90
2011,05,18,10,32,12.80
2011,05,18,10,33,12.80
2011,05,18,10,34,12.80
2011,05,18,10,35,12.70
2011,05,18,10,36,12.70
2011,05,18,10,37,12.70
2011,05,18,10,38,12.80
2011,05,18,10,39,12.80
2011,05,18,10,40,12.80
2011,05,18,10,41,12.90
2011,05,18,10,42,12.90
2011,05,18,10,43,12.90
2011,05,18,10,44,12.80
2011,05,18,10,45,12.80
2011,05,18,10,46,12.80
2011,05,18,10,47,12.90
2011,05,18,10,48,13.00
2011,05,18,10,49,13.10
2011,05,18,10,50,13.10
2011,05,18,10,51,13.10
2011,05,18,10,52,13.10
2011,05,18,10,53,13.10
2011,05,18,10,54,13.10
2011,05,18,10,55,13.10
2011,05,18,10,56,13.10
2011,05,18,10,57,13.10
2011,05,18,10,58,13.20
2011,05,18,10,59,13.20
2011,05,18,11,00,13.20
2011,05,18,11,01,13.20
2011,05,18,11,02,13.10
2011,05,18,11,03,13.00
2011,05,18,11,04,12.90
2011,05,18,11,05,12.90
2011,05,18,11,06,12.90
2011,05,18,11,07,12.90
2011,05,18,11,08,12.80
2011,05,18,11,09,12.80
2011,05,18,11,10,12.80
2011,05,18,11,11,12.90
2011,05,18,11,12,12.90
2011,05,18,11,13,12.90
2011,05,18,11,14,13.00
2011,05,18,11,15,13.00
2011,05,18,11,16,13.10
2011,05,18,11,17,13.30
2011,05,18,11,18,13.40
2011,05,18,11,19,13.40
2011,05,18,11,20,13.50
2011,05,18,11,21,13.50
2011,05,18,11,22,13.60
2011,05,18,11,23,13.50
2011,05,18,11,24,13.50
2011,05,18,11,25,13.40
2011,05,18,11,26,13.30
2011,05,18,11,27,13.20
2011,05,18,11,28,13.10
2011,05,18,11,29,13.10
2011,05,18,11,30,13.10
2011,05,18,11,31,13.10
2011,05,18,11,32,13.10
2011,05,18,11,33,13.20
2011,05,18,11,34,13.30
2011,05,18,11,35,13.30
2011,05,18,11,36,13.30
2011,05,18,11,37,13.30
2011,05,18,11,38,13.30
2011,05,18,11,39,13.30
2011,05,18,11,40,13.30
2011,05,18,11,41,13.30
2011,05,18,11,42,13.30
2011,05,18,11,43,13.30
2011,05,18,11,44,13.30
2011,05,18,11,45,13.30
2011,05,18,11,46,13.30
2011,05,18,11,47,13.40
2011,05,18,11,48,13.50
2011,05,18,11,49,13.60
2011,05,18,11,50,13.70
2011,05,18,11,51,13.80
2011,05,18,11,52,13.80
2011,05,18,11,53,13.80
2011,05,18,11,54,13.80
2011,05,18,11,55,13.80
2011,05,18,11,56,13.80
2011,05,18,11,57,13.90
2011,05,18,11,58,13.90
2011,05,18,11,59,13.90
2011,05,18,12,00,13.90
2011,05,18,12,01,14.00
2011,05,18,12,02,14.10
2011,05,18,12,03,14.10
2011,05,18,12,04,14.20
2011,05,18,12,05,14.30
2011,05,18,12,06,14.40
2011,05,18,12,07,14.50
2011,05,18,12,08,14.50
2011,05,18,12,09,14.50
2011,05,18,12,10,14.60
2011,05,18,12,11,14.70
2011,05,18,12,12,14.70
2011,05,18,12,13,14.70
2011,05,18,12,14,14.70
2011,05,18,12,15,14.80
2011,05,18,12,16,14.80
2011,05,18,12,17,14.90
2011,05,18,12,18,15.00
2011,05,18,12,19,15.00
2011,05,18,12,20,15.20
2011,05,18,12,21,15.40
2011,05,18,12,22,15.40
2011,05,18,12,23,15.30
2011,05,18,12,24,15.30
2011,05,18,12,25,15.30
2011,05,18,12,26,15.30
2011,05,18,12,27,15.30
2011,05,18,12,28,15.30
2011,05,18,12,29,15.20
2011,05,18,12,30,15.10
2011,05,18,12,31,15.30
2011,05,18,12,32,15.30
2011,05,18,12,33,15.30
2011,05,18,12,34,15.30
2011,05,18,12,35,15.40
2011,05,18,12,36,15.50
2011,05,18,12,37,15.60
2011,05,18,12,38,15.70
2011,05,18,12,39,15.80
2011,05,18,12,40,15.70
2011,05,18,12,41,15.80
2011,05,18,12,42,15.70
2011,05,18,12,43,15.80
2011,05,18,12,44,15.80
2011,05,18,12,45,15.90
2011,05,18,12,46,16.00
2011,05,18,12,47,15.90
2011,05,18,12,48,15.90
2011,05,18,12,49,15.90
2011,05,18,12,50,15.90
2011,05,18,12,51,15.90
2011,05,18,12,52,16.00
2011,05,18,12,53,16.00
2011,05,18,12,54,16.00
2011,05,18,12,55,16.10
2011,05,18,12,56,16.00
2011,05,18,12,57,16.00
2011,05,18,12,58,16.00
2011,05,18,12,59,16.00
2011,05,18,13,00,15.90
2011,05,18,13,01,15.90
2011,05,18,13,02,16.00
2011,05,18,13,03,16.10
2011,05,18,13,04,16.20
2011,05,18,13,05,16.30
2011,05,18,13,06,16.30
2011,05,18,13,07,16.20
2011,05,18,13,08,16.20
2011,05,18,13,09,16.10
2011,05,18,13,10,16.10
2011,05,18,13,11,16.00
2011,05,18,13,12,15.90
2011,05,18,13,13,15.80
2011,05,18,13,14,15.70
2011,05,18,13,15,15.60
2011,05,18,13,16,15.70
2011,05,18,13,17,15.70
2011,05,18,13,18,15.70
2011,05,18,13,19,15.80
2011,05,18,13,20,15.90
2011,05,18,13,21,15.90
2011,05,18,13,22,16.00
2011,05,18,13,23,16.00
2011,05,18,13,24,16.10
2011,05,18,13,25,16.10
2011,05,18,13,26,16.10
2011,05,18,13,27,16.10
2011,05,18,13,28,16.00
2011,05,18,13,29,16.00
2011,05,18,13,30,15.90
2011,05,18,13,31,15.90
2011,05,18,13,32,15.90
2011,05,18,13,33,16.00
2011,05,18,13,34,16.00
2011,05,18,13,35,16.10
2011,05,18,13,36,16.00
2011,05,18,13,37,16.00
2011,05,18,13,38,15.90
2011,05,18,13,39,15.90
2011,05,18,13,40,15.90
2011,05,18,13,41,15.90
2011,05,18,13,42,15.90
2011,05,18,13,43,16.00
2011,05,18,13,44,16.10
2011,05,18,13,45,16.20
2011,05,18,13,46,16.20
2011,05,18,13,47,16.20
2011,05,18,13,48,16.30
2011,05,18,13,49,16.30
2011,05,18,13,50,16.40
2011,05,18,13,51,16.40
2011,05,18,13,52,16.40
2011,05,18,13,53,16.40
2011,05,18,13,54,16.40
2011,05,18,13,55,16.40
2011,05,18,13,56,16.40
2011,05,18,13,57,16.30
2011,05,18,13,58,16.20
2011,05,18,13,59,16.10
2011,05,18,14,00,16.00
2011,05,18,14,01,16.00
2011,05,18,14,02,16.00
2011,05,18,14,03,16.00
2011,05,18,14,04,16.00
2011,05,18,14,05,16.00
2011,05,18,14,06,16.10
2011,05,18,14,07,16.10
2011,05,18,14,08,16.10
2011,05,18,14,09,16.20
2011,05,18,14,10,16.30
2011,05,18,14,11,16.40
2011,05,18,14,12,16.40
2011,05,18,14,13,16.40
2011,05,18,14,14,16.40
2011,05,18,14,15,16.40
2011,05,18,14,16,16.50
2011,05,18,14,17,16.40
2011,05,18,14,18,16.40
2011,05,18,14,19,16.50
2011,05,18,14,20,16.40
2011,05,18,14,21,16.40
2011,05,18,14,22,16.50
2011,05,18,14,23,16.50
2011,05,18,14,24,16.50
2011,05,18,14,25,16.50
2011,05,18,14,26,16.50
2011,05,18,14,27,16.50
2011,05,18,14,28,16.60
2011,05,18,14,29,16.60
2011,05,18,14,30,16.60
2011,05,18,14,31,16.70
2011,05,18,14,32,16.80
2011,05,18,14,33,16.80
2011,05,18,14,34,16.80
2011,05,18,14,35,16.70
2011,05,18,14,36,16.80
2011,05,18,14,37,16.80
2011,05,18,14,38,16.80
2011,05,18,14,39,16.80
2011,05,18,14,40,16.80
2011,05,18,14,41,16.80
2011,05,18,14,42,16.70
2011,05,18,14,43,16.70
2011,05,18,14,44,16.80
2011,05,18,14,45,16.80
2011,05,18,14,46,16.90
2011,05,18,14,47,16.90
2011,05,18,14,48,16.90
2011,05,18,14,49,16.80
2011,05,18,14,50,16.80
2011,05,18,14,51,16.80
2011,05,18,14,52,16.80
2011,05,18,14,53,16.80
2011,05,18,14,54,16.80
2011,05,18,14,55,16.80
2011,05,18,14,56,16.90
2011,05,18,14,57,17.00
2011,05,18,14,58,17.10
2011,05,18,14,59,17.20
2011,05,18,15,00,17.20
2011,05,18,15,01,17.20
2011,05,18,15,02,17.10
2011,05,18,15,03,17.10
2011,05,18,15,04,17.10
2011,05,18,15,05,17.30
2011,05,18,15,06,17.40
2011,05,18,15,07,17.50
2011,05,18,15,08,17.60
2011,05,18,15,09,17.70
2011,05,18,15,10,17.80
2011,05,18,15,11,17.80
2011,05,18,15,12,17.90
2011,05,18,15,13,18.00
2011,05,18,15,14,18.10
2011,05,18,15,15,18.30
2011,05,18,15,16,18.30
2011,05,18,15,17,18.30
2011,05,18,15,18,18.30
2011,05,18,15,19,18.20
2011,05,18,15,20,18.20
2011,05,18,15,21,18.20
2011,05,18,15,22,18.10
2011,05,18,15,23,18.00
2011,05,18,15,24,17.90
2011,05,18,15,25,17.90
2011,05,18,15,26,18.00
2011,05,18,15,27,17.90
2011,05,18,15,28,17.90
2011,05,18,15,29,17.80
2011,05,18,15,30,17.80
2011,05,18,15,31,17.80
2011,05,18,15,32,17.60
2011,05,18,15,33,17.60
2011,05,18,15,34,17.50
2011,05,18,15,35,17.60
2011,05,18,15,36,17.50
2011,05,18,15,37,17.50
2011,05,18,15,38,17.30
2011,05,18,15,39,17.20
2011,05,18,15,40,17.20
2011,05,18,15,41,17.30
2011,05,18,15,42,17.40
2011,05,18,15,43,17.40
2011,05,18,15,44,17.50
2011,05,18,15,45,17.60
2011,05,18,15,46,17.80
2011,05,18,15,47,17.90
2011,05,18,15,48,18.20
2011,05,18,15,49,18.30
2011,05,18,15,50,18.30
2011,05,18,15,51,18.20
2011,05,18,15,52,18.20
2011,05,18,15,53,18.30
2011,05,18,15,54,18.20
2011,05,18,15,55,18.20
2011,05,18,15,56,18.20
2011,05,18,15,57,18.20
2011,05,18,15,58,18.30
2011,05,18,15,59,18.30
2011,05,18,16,00,18.20
2011,05,18,16,01,18.30
2011,05,18,16,02,18.30
2011,05,18,16,03,18.40
2011,05,18,16,04,18.50
2011,05,18,16,05,18.50
2011,05,18,16,06,18.60
2011,05,18,16,07,18.60
2011,05,18,16,08,18.60
2011,05,18,16,09,18.60
2011,05,18,16,10,18.60
2011,05,18,16,11,18.60
2011,05,18,16,12,18.70
2011,05,18,16,13,18.80
2011,05,18,16,14,18.70
2011,05,18,16,15,18.80
2011,05,18,16,16,18.80
2011,05,18,16,17,18.90
2011,05,18,16,18,18.90
2011,05,18,16,19,18.90
2011,05,18,16,20,18.90
2011,05,18,16,21,18.90
2011,05,18,16,22,18.90
2011,05,18,16,23,18.90
2011,05,18,16,24,18.90
2011,05,18,16,25,19.00
2011,05,18,16,26,18.90
2011,05,18,16,27,18.80
2011,05,18,16,28,18.80
2011,05,18,16,29,18.80
2011,05,18,16,30,18.80
2011,05,18,16,31,18.80
2011,05,18,16,32,18.70
2011,05,18,16,33,18.60
2011,05,18,16,34,18.40
2011,05,18,16,35,18.40
2011,05,18,16,36,18.50
2011,05,18,16,37,18.60
2011,05,18,16,38,18.70
2011,05,18,16,39,18.70
2011,05,18,16,40,18.60
2011,05,18,16,41,18.60
2011,05,18,16,42,18.60
2011,05,18,16,43,18.60
2011,05,18,16,44,18.50
2011,05,18,16,45,18.60
2011,05,18,16,46,18.50
2011,05,18,16,47,18.50
2011,05,18,16,48,18.30
2011,05,18,16,49,18.30
2011,05,18,16,50,18.30
2011,05,18,16,51,18.20
2011,05,18,16,52,18.30
2011,05,18,16,53,18.40
2011,05,18,16,54,18.40
2011,05,18,16,55,18.40
2011,05,18,16,56,18.40
2011,05,18,16,57,18.30
2011,05,18,16,58,18.20
2011,05,18,16,59,18.10
2011,05,18,17,00,17.90
2011,05,18,17,01,17.90
2011,05,18,17,02,17.90
2011,05,18,17,03,17.90
2011,05,18,17,04,18.00
2011,05,18,17,05,18.10
2011,05,18,17,06,18.20
2011,05,18,17,07,18.20
2011,05,18,17,08,18.10
2011,05,18,17,09,18.10
2011,05,18,17,10,18.00
2011,05,18,17,11,18.00
2011,05,18,17,12,18.00
2011,05,18,17,13,18.00
2011,05,18,17,14,18.00
2011,05,18,17,15,18.00
2011,05,18,17,16,17.90
2011,05,18,17,17,18.00
2011,05,18,17,18,18.00
2011,05,18,17,19,18.00
2011,05,18,17,20,18.00
2011,05,18,17,21,17.90
2011,05,18,17,22,17.80
2011,05,18,17,23,17.70
2011,05,18,17,24,17.70
2011,05,18,17,25,17.60
2011,05,18,17,26,17.60
2011,05,18,17,27,17.60
2011,05,18,17,28,17.50
2011,05,18,17,29,17.50
2011,05,18,17,30,17.50
2011,05,18,17,31,17.60
2011,05,18,17,32,17.60
2011,05,18,17,33,17.60
2011,05,18,17,34,17.60
2011,05,18,17,35,17.70
2011,05,18,17,36,17.70
2011,05,18,17,37,17.60
2011,05,18,17,38,17.60
2011,05,18,17,39,17.70
2011,05,18,17,40,17.70